Theta_e
320 321 323 324 329 333 331 331 333 333 335 335 335 336 334 335 335 341 339 340 340 339 327 326 325 323 320 317 318 322 328 328 329 323 320 319 318 318 317 317 317 316 316 316 317 317 318 319 320
323 323 325 329 333 334 335 334 336 337 335 336 335 335 335 337 333 339 341 344 343 341 329 327 329 328 326 321 318 318 321 324 323 319 318 319 319 318 318 317 317 316 316 316 316 317 317 318 319
319 323 328 333 334 336 336 335 336 335 336 336 336 335 335 337 338 338 342 343 342 342 335 328 330 331 330 327 321 318 318 318 318 318 318 318 318 318 318 317 317 316 316 316 316 316 317 317 317
323 327 328 333 333 332 334 334 335 335 335 334 334 336 339 341 337 338 343 345 343 342 339 331 332 332 332 331 327 321 318 317 317 317 317 317 317 317 317 317 316 316 316 316 316 316 316 316 317
325 328 332 333 332 332 331 330 332 335 334 334 334 334 338 345 340 341 345 345 344 342 340 334 333 333 333 333 332 328 321 318 317 317 317 317 317 317 317 316 316 316 316 316 316 316 316 316 316
328 330 333 332 333 332 331 330 331 331 333 335 334 333 340 344 341 342 344 346 345 342 342 335 334 334 334 334 334 332 328 321 319 318 317 317 317 317 317 317 317 317 317 317 317 317 317 317 317
330 332 334 333 333 332 331 330 332 332 331 332 332 334 340 343 344 342 344 346 346 344 344 334 334 334 334 335 334 334 332 326 321 319 318 318 317 317 317 317 317 317 317 317 317 317 318 318 318
327 332 333 331 332 334 331 330 330 330 334 333 332 335 338 342 345 342 344 345 347 346 345 333 334 334 334 334 334 334 333 329 324 321 320 319 318 318 318 318 318 318 318 318 318 319 319 320 320
327 330 331 331 331 333 330 331 329 331 332 332 334 333 338 345 343 342 343 345 347 348 347 345 337 334 334 335 335 334 334 332 327 323 322 320 320 319 319 319 319 319 319 319 320 321 321 321 321
327 329 331 331 330 331 330 330 330 330 332 332 333 335 340 345 343 342 342 343 347 348 348 347 344 342 339 340 339 335 335 334 331 326 324 323 322 329 326 322 321 320 320 321 321 322 322 323 323
326 327 330 330 329 328 329 330 330 330 330 330 331 331 339 342 343 342 340 341 342 345 347 346 347 345 344 342 342 342 338 335 334 331 327 325 331 335 329 333 325 322 322 322 323 323 324 324 325
327 326 326 327 327 327 328 329 329 329 330 330 329 329 334 340 341 342 340 337 339 341 343 344 345 347 347 344 343 343 341 341 339 337 332 331 330 336 336 334 336 330 331 326 331 331 332 331 331
329 328 327 327 326 326 326 327 328 328 328 329 329 329 329 335 338 339 340 338 336 339 341 343 343 347 347 344 344 343 342 342 342 341 340 338 338 337 337 336 335 336 335 335 335 335 335 335 334
328 327 326 326 326 326 328 328 327 327 327 328 328 329 329 329 332 334 337 338 338 336 340 342 342 344 347 347 342 343 342 342 342 342 341 339 338 338 338 337 337 337 337 336 336 336 337 337 336
326 327 327 326 326 329 328 329 329 327 326 327 328 328 328 328 329 331 332 336 338 338 337 343 343 343 343 344 345 344 343 343 343 342 341 341 337 338 338 339 338 338 337 337 337 337 337 337 337
327 328 328 329 330 330 329 330 330 330 330 330 329 328 328 329 329 330 330 332 334 339 338 340 343 343 339 334 335 340 343 343 343 343 342 341 340 336 339 339 338 338 338 338 338 338 337 338 337
328 328 328 328 330 330 330 331 331 329 329 330 330 330 330 330 330 330 330 330 332 336 340 340 342 342 340 334 338 335 340 342 343 342 342 342 341 338 334 339 338 338 339 339 339 338 338 338 337
327 327 328 328 328 330 330 330 330 329 329 329 329 330 330 330 330 331 330 330 332 335 339 342 342 342 341 343 339 342 342 342 342 342 341 341 341 339 336 335 338 338 339 339 339 338 338 338 338
328 326 327 327 327 327 328 329 330 329 328 328 328 329 330 330 330 330 330 331 334 335 337 340 343 344 344 343 344 342 341 342 342 342 341 341 340 340 338 337 339 338 338 338 338 338 338 337 338
327 326 326 327 326 327 328 328 328 327 328 328 328 328 328 329 329 330 329 332 334 335 338 340 344 346 346 344 343 342 342 341 341 341 341 341 341 340 340 338 338 339 338 338 338 338 338 338 338
327 326 326 327 327 325 325 324 325 327 329 329 329 329 329 329 330 331 331 331 331 333 336 340 342 345 347 346 345 344 343 342 342 341 343 343 342 341 340 340 339 338 338 338 338 337 337 338 338
327 326 325 326 326 324 326 326 326 328 328 329 329 330 331 331 332 334 334 332 331 331 331 332 340 343 346 347 347 345 345 344 344 343 343 344 344 344 342 341 340 339 338 338 338 338 337 338 338
325 325 325 326 325 325 324 325 326 326 328 329 330 331 331 332 333 334 334 334 334 330 329 330 331 337 343 345 348 346 346 345 345 345 345 344 345 345 345 343 341 341 341 339 340 340 337 337 338
325 325 326 325 325 326 326 327 327 327 327 328 329 331 331 331 331 332 334 335 336 338 329 334 337 338 340 344 346 348 346 346 346 346 346 346 346 346 346 345 344 343 342 342 341 341 340 338 338
326 326 326 326 327 327 326 327 327 327 326 327 329 329 331 331 331 331 331 331 332 335 338 338 338 338 340 343 345 345 342 338 342 345 345 345 346 346 346 345 344 344 344 342 341 341 341 340 338
325 326 328 325 324 325 326 328 328 327 326 326 328 329 330 331 330 328 328 328 328 329 331 330 333 335 339 342 343 344 345 345 345 346 346 346 346 345 345 346 344 343 344 345 344 343 341 341 339
326 327 326 327 326 327 326 326 328 326 326 327 328 329 330 329 328 327 328 328 328 328 327 319 321 329 330 331 335 338 340 341 342 344 344 344 343 344 345 344 344 344 342 345 344 343 340 341 336
325 325 326 326 328 328 325 325 325 326 326 326 329 328 328 327 327 327 327 327 328 329 329 323 324 326 327 326 327 330 331 335 338 340 341 341 341 344 343 344 343 343 342 339 337 334 333 331 331
324 326 326 325 326 328 328 326 327 325 326 327 329 328 328 327 327 327 327 328 328 328 326 324 323 324 325 325 325 325 325 326 327 331 337 338 340 342 343 344 343 339 337 338 339 338 335 331 327
321 323 325 328 327 326 329 328 327 326 327 325 327 328 328 326 326 326 327 328 328 327 326 325 325 325 325 326 326 326 327 331 333 335 336 336 336 338 340 341 343 342 339 339 339 340 340 335 331
Wind_Speed
1 4 5 8 8 9 5 7 3 9 9 8 5 8 10 6 11 5 6 10 14 20 23 22 19 16 14 13 13 13 13 12 11 10 10 10 9 9 9 8 8 7 7 7 7 7 7 8 8
1 6 8 14 8 6 10 4 6 11 10 5 3 3 6 9 8 4 5 6 19 22 25 24 21 17 15 13 13 12 13 12 11 10 10 10 9 8 8 7 6 6 6 6 6 6 5 5 6
4 7 15 7 11 10 10 6 8 11 7 3 1 3 5 13 5 2 3 11 22 22 24 25 22 19 15 14 13 12 12 12 12 11 11 10 8 8 7 6 6 5 5 5 4 3 3 2 3
5 7 11 10 6 9 10 8 5 9 5 2 4 3 5 5 2 0 7 16 21 21 22 24 22 19 17 14 12 12 12 11 11 11 10 10 9 8 7 6 6 5 5 4 4 3 2 2 2
6 12 13 10 8 5 5 6 1 6 5 7 4 11 6 4 5 7 13 18 22 21 21 24 23 20 18 15 13 11 11 11 11 11 11 10 9 8 8 7 7 6 5 5 5 4 4 5 4
12 10 14 8 8 4 3 4 2 3 2 8 5 3 8 6 7 11 14 18 20 22 21 24 25 22 19 17 15 13 13 13 12 12 12 11 10 9 9 8 8 8 7 7 7 6 6 6 6
15 10 15 7 7 7 3 4 3 2 4 6 2 3 9 6 8 12 13 16 18 20 21 24 27 25 21 19 17 16 15 14 14 13 13 12 11 11 11 10 10 10 9 9 9 8 8 8 8
10 9 9 5 6 10 3 3 2 8 4 4 3 3 11 11 12 14 13 15 18 20 20 23 28 27 26 24 21 19 18 16 16 15 14 13 13 12 12 12 12 11 11 11 11 10 9 10 10
10 10 9 6 5 5 3 5 5 5 9 6 6 4 8 11 14 14 15 15 18 20 21 21 26 29 28 26 24 23 21 20 19 18 17 16 15 15 14 14 14 14 13 13 12 12 11 12 11
10 10 8 10 7 8 7 6 4 7 15 11 9 5 6 11 14 15 15 17 20 22 23 22 23 24 25 23 23 27 26 25 24 23 22 20 17 15 14 15 15 15 16 15 14 14 14 13 12
8 13 10 6 5 8 16 11 6 11 12 10 5 9 13 13 15 16 16 17 20 21 22 25 25 25 24 22 21 19 24 27 27 26 25 23 17 15 17 15 19 19 18 17 17 17 17 15 11
9 16 12 15 11 15 15 16 15 18 16 16 6 7 10 14 17 18 18 18 19 22 23 24 25 26 26 23 23 20 20 22 22 25 28 24 23 20 18 17 15 18 16 19 16 13 14 13 14
12 14 15 13 15 17 19 21 21 23 21 17 15 11 13 14 17 19 19 20 20 22 24 26 26 28 28 30 23 23 23 23 21 21 23 24 22 22 20 19 18 17 15 17 15 16 16 16 17
13 12 17 19 19 18 19 24 23 27 23 24 24 23 21 20 19 19 20 23 23 24 25 26 27 30 27 28 31 27 27 23 24 22 23 27 25 23 21 21 20 20 19 18 18 17 16 17 17
12 15 16 19 13 9 8 18 23 28 23 27 23 24 25 26 23 23 22 24 25 26 25 27 28 31 30 29 28 28 24 25 24 24 26 27 27 26 24 21 21 20 20 21 20 19 19 19 18
16 15 13 7 4 7 8 15 4 5 11 19 21 24 24 24 25 26 25 26 27 27 27 27 26 29 32 30 30 29 26 25 25 24 25 29 29 28 26 23 22 21 21 21 20 20 20 21 20
15 14 12 8 5 5 9 13 14 17 17 20 20 20 22 23 22 24 24 26 28 28 27 27 29 30 32 30 28 28 28 29 25 24 25 27 29 29 30 25 25 25 23 24 22 22 23 23 27
16 12 9 9 5 11 13 18 19 20 20 23 22 23 22 23 22 22 19 20 24 26 25 28 31 33 32 27 28 25 26 28 26 27 27 28 28 30 31 30 29 27 26 26 26 27 25 26 28
19 18 18 16 10 15 17 19 16 20 23 17 18 20 20 23 24 22 16 17 20 23 24 27 30 32 30 29 28 28 31 27 28 28 29 29 32 31 32 30 29 32 31 30 28 30 30 31 28
17 20 20 18 13 8 16 20 19 20 18 14 11 10 12 11 11 12 11 15 18 22 24 25 28 28 29 27 29 28 26 28 26 26 28 31 32 34 33 34 32 31 31 33 33 32 32 33 30
20 20 20 20 17 14 20 22 25 15 9 9 7 6 5 5 6 7 9 11 15 20 24 25 26 26 27 27 25 25 26 27 28 30 28 30 32 34 36 36 36 34 35 36 35 35 35 36 32
21 18 20 19 15 13 4 13 14 10 12 11 9 8 6 5 5 4 2 2 7 14 19 22 23 25 25 26 25 27 27 28 28 27 26 26 30 33 35 38 38 39 38 39 39 38 37 34 36
21 16 12 13 16 16 20 12 16 21 12 14 10 12 10 8 7 8 8 9 8 4 4 11 17 20 20 21 25 25 30 29 27 27 27 28 29 32 36 37 38 39 39 41 40 40 40 37 37
23 13 13 16 15 16 21 17 18 16 16 15 14 14 14 13 9 9 9 9 11 12 13 8 7 10 13 17 19 22 23 23 24 23 26 27 28 30 34 38 39 39 38 39 39 39 38 36 35
15 14 10 12 14 17 19 20 18 16 10 10 16 16 16 13 11 10 9 9 9 10 10 8 5 4 6 10 13 15 16 17 21 24 25 25 27 29 32 37 41 42 41 38 37 36 36 36 35
19 21 14 22 16 17 20 13 12 14 18 12 15 18 17 16 14 11 10 9 7 8 7 7 5 3 2 5 8 11 14 16 17 18 21 23 24 27 26 33 31 30 32 36 35 34 35 35 34
26 20 27 22 23 19 21 21 12 11 10 12 16 17 21 18 15 12 9 8 6 6 4 4 5 5 5 6 9 12 14 17 19 21 24 25 25 24 25 26 29 30 29 28 31 33 32 33 33
29 23 18 15 21 25 22 23 18 23 21 15 17 20 21 18 15 11 7 6 6 6 5 6 7 8 9 10 11 11 13 15 18 21 24 25 25 23 26 26 28 31 32 29 27 28 29 30 32
18 20 25 20 15 19 18 18 20 15 10 14 21 24 22 17 13 10 7 6 6 7 7 7 8 9 11 13 14 15 16 18 19 20 21 24 25 25 26 25 26 28 29 31 30 32 32 31 31
24 22 27 17 26 16 19 19 20 15 11 11 18 25 19 16 13 9 6 7 7 9 10 10 11 12 14 14 13 13 13 14 14 14 15 20 24 23 22 21 22 25 25 24 25 28 30 31 31
Wind_Direction
148 349 288 246 244 230 112 89 96 120 116 55 55 3 12 4 6 70 152 170 168 173 182 171 167 165 163 164 169 180 182 181 172 167 162 162 156 149 145 144 139 138 133 126 122 122 118 111 102
215 278 261 270 258 224 90 160 112 69 73 92 102 228 30 63 38 92 160 175 171 175 181 177 171 171 167 165 166 176 180 186 180 177 173 176 168 163 160 156 152 152 151 142 140 141 130 121 111
290 268 270 250 262 60 98 81 90 95 103 124 34 47 4 34 53 61 188 156 166 174 176 182 176 174 172 171 164 174 184 191 188 186 186 185 184 179 178 175 172 172 171 163 159 157 140 138 127
289 243 247 258 55 38 48 86 84 127 135 133 38 109 134 55 36 318 162 159 164 172 170 184 181 180 180 176 173 180 189 197 198 196 197 196 196 192 191 194 194 193 197 192 189 195 201 219 211
263 267 261 247 70 107 90 44 223 155 149 112 309 73 82 88 109 129 142 154 164 170 176 185 187 190 190 187 186 190 197 206 206 208 208 208 205 204 206 205 209 210 221 221 222 220 229 241 245
258 254 258 190 119 120 144 14 293 208 324 123 233 26 78 125 130 143 148 159 168 169 186 192 191 197 197 197 198 201 207 211 212 217 217 218 216 214 216 214 219 219 223 230 231 232 237 248 253
255 270 284 28 112 166 54 319 262 344 273 192 109 275 108 148 158 155 156 166 173 177 185 195 195 199 202 204 205 210 216 216 218 221 223 223 222 220 223 220 222 228 229 235 238 239 244 253 258
290 285 274 249 181 117 65 280 283 245 87 79 182 329 122 146 162 166 170 171 179 186 190 199 201 205 205 206 207 212 220 221 223 225 227 227 226 225 226 226 227 229 233 236 240 244 251 259 263
272 271 253 236 231 94 76 292 150 257 268 217 165 278 98 155 157 166 180 186 190 193 197 198 203 210 212 212 213 215 219 222 225 227 228 229 229 230 230 230 231 232 236 241 242 250 255 260 264
260 257 286 26 12 313 266 265 314 257 208 217 201 201 172 172 178 182 188 195 198 198 201 204 201 204 209 207 214 219 221 222 223 226 229 229 227 230 227 236 236 236 239 244 248 250 256 261 268
250 260 1 306 301 309 299 292 281 269 269 260 229 218 187 196 201 204 205 209 208 208 205 203 205 205 206 207 212 220 217 223 224 227 229 228 225 220 227 227 239 236 241 246 251 253 255 257 246
269 261 281 282 287 289 281 286 289 283 282 297 273 264 206 215 215 218 217 214 210 210 210 208 209 206 208 208 212 216 218 222 219 225 230 226 220 223 220 220 234 240 235 242 235 247 248 248 241
256 271 284 285 273 270 277 267 270 266 264 269 265 248 243 223 228 230 227 223 216 212 210 209 207 211 208 204 212 215 220 222 224 225 229 221 220 222 226 222 222 229 228 237 229 234 239 245 242
306 290 284 279 273 270 273 271 258 255 255 252 251 254 249 238 237 236 229 230 224 219 214 209 208 213 211 212 204 215 211 218 223 224 226 238 220 227 225 225 226 228 229 232 234 235 241 248 248
279 284 279 264 253 266 285 269 242 249 248 255 255 254 251 257 250 239 240 233 233 226 217 214 207 210 215 214 217 212 218 217 222 223 227 232 235 223 226 230 229 231 232 232 234 236 239 243 248
259 264 278 85 210 229 246 282 303 224 245 252 252 256 253 254 256 252 254 245 236 231 221 214 213 212 221 220 221 217 218 221 222 226 224 232 234 233 231 230 234 233 234 236 238 237 241 244 247
239 257 248 288 159 275 250 289 307 295 286 273 263 260 261 259 254 254 254 256 239 229 223 217 218 215 223 222 219 224 219 226 226 227 228 230 236 235 235 232 233 234 234 235 237 242 241 245 247
260 245 237 251 223 207 261 272 281 277 270 269 263 256 258 263 260 257 261 255 233 230 223 222 223 228 221 222 225 222 224 226 227 229 229 228 233 239 239 235 231 232 233 235 237 238 240 245 244
279 285 276 275 278 283 279 280 277 283 287 283 268 255 254 256 255 255 259 237 223 224 226 222 221 225 223 219 220 220 222 227 229 231 231 231 231 236 245 237 237 233 232 234 237 238 241 240 245
257 266 267 273 264 284 273 276 281 281 277 276 279 269 267 264 239 235 245 229 222 227 227 224 223 221 224 224 224 226 228 229 234 236 238 236 235 238 239 245 235 235 238 237 236 233 239 246 239
253 257 267 274 289 275 276 271 270 245 233 246 237 250 253 249 244 238 239 233 233 233 231 230 226 223 225 225 230 232 233 235 236 236 238 242 238 238 243 238 247 237 234 237 245 243 237 237 243
252 251 254 261 266 269 272 278 284 223 210 208 205 216 204 168 143 122 131 233 250 245 235 227 225 225 226 227 226 231 235 238 238 240 241 242 246 249 243 248 242 246 236 239 236 243 245 240 242
257 281 274 269 267 271 262 253 260 262 218 217 197 195 181 165 146 115 90 77 73 56 211 217 219 220 225 228 228 233 235 241 244 244 246 246 246 250 253 253 252 244 242 241 239 238 245 241 241
259 263 249 259 257 255 254 251 262 254 217 232 174 192 178 169 153 130 110 89 76 72 77 103 149 191 211 222 229 234 235 241 247 249 251 251 251 251 252 255 253 251 247 246 244 245 247 249 251
249 215 240 237 233 249 252 247 244 243 280 242 181 195 185 176 167 153 134 110 89 77 73 75 93 145 194 217 226 240 250 250 246 249 251 252 253 253 254 255 257 255 258 256 250 251 251 252 253
215 224 230 240 253 257 248 235 252 264 261 248 185 194 186 176 165 159 144 125 100 79 64 72 62 35 308 274 264 263 264 264 267 266 262 258 259 258 259 268 274 271 265 256 255 255 255 257 261
248 223 240 256 271 278 277 275 240 239 232 239 209 192 193 181 173 165 144 123 109 87 52 23 18 3 334 301 289 284 282 277 273 270 264 265 263 259 255 259 270 273 271 265 255 254 257 257 264
221 247 234 238 252 257 258 261 263 257 223 213 214 200 201 185 179 168 149 123 102 77 46 3 2 355 335 318 308 302 289 285 282 279 279 277 272 263 257 247 250 259 269 268 260 255 259 262 267
214 225 251 246 242 241 253 255 257 286 220 228 199 207 206 196 181 171 147 101 70 55 31 12 355 344 337 331 324 318 315 311 303 295 285 276 267 262 265 265 263 264 264 264 261 262 263 266 272
287 255 224 239 240 244 243 253 274 296 291 253 209 192 196 197 178 164 137 114 90 71 52 28 23 24 23 15 1 348 341 341 338 330 308 291 289 289 281 275 264 263 265 268 260 259 261 267 270